Time,TemperatureF,DewpointF,PressureIn,WindDirection,WindDirectionDegrees,WindSpeedMPH,WindSpeedGustMPH,Humidity,HourlyPrecipIn,Conditions,Clouds,dailyrainin,SoftwareType,DateUTC
2013-01-19 00:00:00,50.4,-99.9,30.10,East,98,0.0,0.0,-999,-99.99,,,-99.99,,2013-01-19 08:00:00,
2013-01-19 00:05:00,50.4,-99.9,30.10,East,98,0.0,0.0,-999,-99.99,,,-99.99,,2013-01-19 08:05:00,
2013-01-19 00:10:00,50.4,-99.9,30.10,East,98,0.0,0.0,-999,-99.99,,,-99.99,,2013-01-19 08:10:00,
2013-01-19 00:15:00,50.3,-99.9,30.10,East,98,0.0,0.0,-999,-99.99,,,-99.99,,2013-01-19 08:15:00,
2013-01-19 00:20:00,50.2,-99.9,30.10,East,98,0.0,0.0,-999,-99.99,,,-99.99,,2013-01-19 08:20:00,
2013-01-19 00:30:00,50.1,-99.9,30.10,East,98,0.0,0.0,-999,-99.99,,,-99.99,,2013-01-19 08:30:00,
2013-01-19 00:35:00,50.0,-99.9,30.10,East,98,0.0,0.0,-999,-99.99,,,-99.99,,2013-01-19 08:35:00,
2013-01-19 00:40:00,50.1,-99.9,30.10,East,98,0.0,0.0,-999,-99.99,,,-99.99,,2013-01-19 08:40:00,
2013-01-19 00:45:00,50.0,-99.9,30.10,East,98,0.0,0.0,-999,-99.99,,,-99.99,,2013-01-19 08:45:00,
2013-01-19 00:50:00,50.1,-99.9,30.10,East,98,0.0,0.0,-999,-99.99,,,-99.99,,2013-01-19 08:50:00,
2013-01-19 01:00:00,50.0,-99.9,30.10,East,98,0.0,0.0,-999,-99.99,,,-99.99,,2013-01-19 09:00:00,
2013-01-19 01:05:00,50.0,-99.9,30.10,East,98,0.0,0.0,-999,-99.99,,,-99.99,,2013-01-19 09:05:00,
2013-01-19 01:10:00,49.9,-99.9,30.10,East,98,0.0,0.0,-999,-99.99,,,-99.99,,2013-01-19 09:10:00,
2013-01-19 01:15:00,50.0,-99.9,30.10,East,98,0.0,0.0,-999,-99.99,,,-99.99,,2013-01-19 09:15:00,
2013-01-19 01:20:00,49.9,-99.9,30.10,East,98,0.0,0.0,-999,-99.99,,,-99.99,,2013-01-19 09:20:00,
2013-01-19 01:25:00,49.9,-99.9,30.10,East,98,0.0,0.0,-999,-99.99,,,-99.99,,2013-01-19 09:25:00,
2013-01-19 01:30:00,50.0,-99.9,30.10,East,98,0.0,0.0,-999,-99.99,,,-99.99,,2013-01-19 09:30:00,
2013-01-19 01:40:00,49.9,-99.9,30.11,East,98,0.0,0.0,-999,-99.99,,,-99.99,,2013-01-19 09:40:00,
2013-01-19 01:50:00,50.1,-99.9,30.11,East,98,0.0,0.0,-999,-99.99,,,-99.99,,2013-01-19 09:50:00,
2013-01-19 01:55:00,50.1,-99.9,30.11,East,98,0.0,0.0,-999,-99.99,,,-99.99,,2013-01-19 09:55:00,
2013-01-19 02:00:00,49.8,-99.9,30.11,East,98,0.0,0.0,-999,-99.99,,,-99.99,,2013-01-19 10:00:00,
2013-01-19 02:10:00,50.1,-99.9,30.11,East,98,0.0,0.0,-999,-99.99,,,-99.99,,2013-01-19 10:10:00,
2013-01-19 02:20:00,50.1,-99.9,30.11,East,98,0.0,0.0,-999,-99.99,,,-99.99,,2013-01-19 10:20:00,
2013-01-19 02:30:00,50.0,-99.9,30.11,East,98,0.0,0.0,-999,-99.99,,,-99.99,,2013-01-19 10:30:00,
2013-01-19 02:40:00,50.1,-99.9,30.11,East,98,0.0,0.0,-999,-99.99,,,-99.99,,2013-01-19 10:40:00,
2013-01-19 02:50:00,50.0,-99.9,30.11,East,98,0.0,0.0,-999,-99.99,,,-99.99,,2013-01-19 10:50:00,
2013-01-19 03:00:00,50.1,-99.9,30.11,East,98,0.0,0.0,-999,-99.99,,,-99.99,,2013-01-19 11:00:00,
2013-01-19 03:10:00,49.9,-99.9,30.11,East,98,0.0,0.0,-999,-99.99,,,-99.99,,2013-01-19 11:10:00,
2013-01-19 04:50:00,49.1,-99.9,30.12,East,98,0.0,0.0,-999,-99.99,,,-99.99,,2013-01-19 12:50:00,
2013-01-19 04:55:00,49.1,-99.9,30.12,East,98,0.0,0.0,-999,-99.99,,,-99.99,,2013-01-19 12:55:00,
2013-01-19 05:00:00,49.1,-99.9,30.12,East,98,0.0,0.0,-999,-99.99,,,-99.99,,2013-01-19 13:00:00,
2013-01-19 05:05:00,49.1,-99.9,30.12,East,98,0.0,0.0,-999,-99.99,,,-99.99,,2013-01-19 13:05:00,
2013-01-19 05:10:00,49.1,-99.9,30.12,East,98,0.0,0.0,-999,-99.99,,,-99.99,,2013-01-19 13:10:00,
2013-01-19 05:15:00,49.1,-99.9,30.12,East,98,0.0,0.0,-999,-99.99,,,-99.99,,2013-01-19 13:15:00,
2013-01-19 05:20:00,49.2,-99.9,30.13,East,98,0.0,0.0,-999,-99.99,,,-99.99,,2013-01-19 13:20:00,
2013-01-19 05:30:00,49.1,-99.9,30.12,East,98,0.0,0.0,-999,-99.99,,,-99.99,,2013-01-19 13:30:00,
2013-01-19 05:40:00,49.1,-99.9,30.13,East,98,0.0,0.0,-999,-99.99,,,-99.99,,2013-01-19 13:40:00,
2013-01-19 05:45:00,49.0,-99.9,30.13,East,98,0.0,0.0,-999,-99.99,,,-99.99,,2013-01-19 13:45:00,
2013-01-19 05:50:00,49.1,-99.9,30.13,East,98,0.0,0.0,-999,-99.99,,,-99.99,,2013-01-19 13:50:00,
2013-01-19 05:55:00,48.9,-99.9,30.13,East,98,0.0,0.0,-999,-99.99,,,-99.99,,2013-01-19 13:55:00,
2013-01-19 06:00:00,48.9,-99.9,30.13,East,98,0.0,0.0,-999,-99.99,,,-99.99,,2013-01-19 14:00:00,
2013-01-19 06:10:00,48.9,-99.9,30.14,East,98,0.0,0.0,-999,-99.99,,,-99.99,,2013-01-19 14:10:00,
2013-01-19 06:20:00,48.9,-99.9,30.14,East,98,0.0,0.0,-999,-99.99,,,-99.99,,2013-01-19 14:20:00,
2013-01-19 06:30:00,48.9,-99.9,30.14,East,98,0.0,0.0,-999,-99.99,,,-99.99,,2013-01-19 14:30:00,
2013-01-19 06:35:00,48.8,-99.9,30.14,East,98,0.0,0.0,-999,-99.99,,,-99.99,,2013-01-19 14:35:00,
2013-01-19 06:40:00,48.7,-99.9,30.14,East,98,0.0,0.0,-999,-99.99,,,-99.99,,2013-01-19 14:40:00,
2013-01-19 06:45:00,48.8,-99.9,30.14,East,98,0.0,0.0,-999,-99.99,,,-99.99,,2013-01-19 14:45:00,
2013-01-19 06:55:00,48.7,-99.9,30.14,ENE,67,0.0,0.0,-999,-99.99,,,-99.99,,2013-01-19 14:55:00,
2013-01-19 07:00:00,48.8,-99.9,30.14,East,94,0.0,0.0,-999,-99.99,,,-99.99,,2013-01-19 15:00:00,
2013-01-19 07:10:00,48.7,-99.9,30.15,SE,124,0.0,0.0,-999,-99.99,,,-99.99,,2013-01-19 15:10:00,
2013-01-19 07:20:00,48.8,-99.9,30.15,SE,124,0.0,0.0,-999,-99.99,,,-99.99,,2013-01-19 15:20:00,
2013-01-19 07:30:00,48.7,-99.9,30.15,SE,124,0.0,0.0,-999,-99.99,,,-99.99,,2013-01-19 15:30:00,
2013-01-19 07:40:00,48.6,-99.9,30.16,ENE,64,0.0,0.0,-999,-99.99,,,-99.99,,2013-01-19 15:40:00,
2013-01-19 07:45:00,48.7,-99.9,30.15,ENE,64,0.0,0.0,-999,-99.99,,,-99.99,,2013-01-19 15:45:00,
2013-01-19 07:50:00,48.6,-99.9,30.16,ENE,64,0.0,0.0,-999,-99.99,,,-99.99,,2013-01-19 15:50:00,
2013-01-19 08:00:00,48.8,-99.9,30.16,ENE,64,0.0,0.0,-999,-99.99,,,-99.99,,2013-01-19 16:00:00,
2013-01-19 08:10:00,48.6,-99.9,30.16,ENE,64,0.0,0.0,-999,-99.99,,,-99.99,,2013-01-19 16:10:00,
2013-01-19 08:20:00,48.8,-99.9,30.17,ENE,64,0.0,0.0,-999,-99.99,,,-99.99,,2013-01-19 16:20:00,
2013-01-19 08:30:00,49.0,-99.9,30.17,ENE,64,0.0,0.0,-999,-99.99,,,-99.99,,2013-01-19 16:30:00,
2013-01-19 08:40:00,49.1,-99.9,30.17,ENE,64,0.0,0.0,-999,-99.99,,,-99.99,,2013-01-19 16:40:00,
2013-01-19 08:50:00,49.2,-99.9,30.17,ENE,64,0.0,0.0,-999,-99.99,,,-99.99,,2013-01-19 16:50:00,
2013-01-19 09:00:00,49.3,-99.9,30.18,ENE,64,0.0,0.0,-999,-99.99,,,-99.99,,2013-01-19 17:00:00,
2013-01-19 09:10:00,49.6,-99.9,30.18,ENE,64,0.0,0.0,-999,-99.99,,,-99.99,,2013-01-19 17:10:00,
2013-01-19 09:15:00,49.6,-99.9,30.18,ENE,64,0.0,0.0,-999,-99.99,,,-99.99,,2013-01-19 17:15:00,
2013-01-19 09:25:00,49.8,-99.9,30.19,ENE,64,0.0,0.0,-999,-99.99,,,-99.99,,2013-01-19 17:25:00,
2013-01-19 09:30:00,49.8,-99.9,30.20,ENE,64,0.0,0.0,-999,-99.99,,,-99.99,,2013-01-19 17:30:00,
2013-01-19 09:40:00,50.1,-99.9,30.20,East,83,0.0,0.0,-999,-99.99,,,-99.99,,2013-01-19 17:40:00,
2013-01-19 09:45:00,50.4,-99.9,30.20,East,83,0.0,0.0,-999,-99.99,,,-99.99,,2013-01-19 17:45:00,
2013-01-19 09:50:00,50.5,-99.9,30.20,East,83,0.0,0.0,-999,-99.99,,,-99.99,,2013-01-19 17:50:00,
2013-01-19 10:00:00,50.7,-99.9,30.20,ENE,76,0.0,8.7,-999,-99.99,,,-99.99,,2013-01-19 18:00:00,
2013-01-19 10:10:00,51.0,-99.9,30.20,East,97,0.0,0.0,-999,-99.99,,,-99.99,,2013-01-19 18:10:00,
2013-01-19 10:20:00,51.3,-99.9,30.20,SE,125,0.0,0.0,-999,-99.99,,,-99.99,,2013-01-19 18:20:00,
2013-01-19 10:25:00,51.3,-99.9,30.20,ENE,70,0.0,11.1,-999,-99.99,,,-99.99,,2013-01-19 18:25:00,
2013-01-19 10:30:00,51.6,-99.9,30.19,SE,145,0.0,8.5,-999,-99.99,,,-99.99,,2013-01-19 18:30:00,
2013-01-19 10:35:00,51.7,-99.9,30.19,East,100,8.7,8.7,-999,-99.99,,,-99.99,,2013-01-19 18:35:00,
2013-01-19 10:45:00,51.9,-99.9,30.19,East,97,0.0,0.0,-999,-99.99,,,-99.99,,2013-01-19 18:45:00,
2013-01-19 10:55:00,52.2,-99.9,30.19,ENE,70,0.0,18.8,-999,-99.99,,,-99.99,,2013-01-19 18:55:00,
2013-01-19 11:00:00,52.2,-99.9,30.19,SE,134,0.0,6.9,-999,-99.99,,,-99.99,,2013-01-19 19:00:00,
2013-01-19 11:10:00,52.6,-99.9,30.18,ESE,105,0.0,11.6,-999,-99.99,,,-99.99,,2013-01-19 19:10:00,
2013-01-19 11:15:00,52.7,-99.9,30.18,ESE,114,11.7,20.4,-999,-99.99,,,-99.99,,2013-01-19 19:15:00,
2013-01-19 11:20:00,53.0,-99.9,30.18,ESE,115,0.0,12.1,-999,-99.99,,,-99.99,,2013-01-19 19:20:00,
2013-01-19 11:30:00,53.2,-99.9,30.17,ESE,108,0.0,0.0,-999,-99.99,,,-99.99,,2013-01-19 19:30:00,
2013-01-19 11:35:00,53.1,-99.9,30.17,ESE,104,0.0,18.0,-999,-99.99,,,-99.99,,2013-01-19 19:35:00,
2013-01-19 11:40:00,53.1,-99.9,30.16,East,97,0.0,14.0,-999,-99.99,,,-99.99,,2013-01-19 19:40:00,
2013-01-19 11:50:00,53.5,-99.9,30.16,East,100,0.0,15.1,-999,-99.99,,,-99.99,,2013-01-19 19:50:00,
2013-01-19 12:00:00,53.9,-99.9,30.16,East,94,0.0,10.8,-999,-99.99,,,-99.99,,2013-01-19 20:00:00,
2013-01-19 12:05:00,53.5,-99.9,30.15,East,94,0.0,0.0,-999,-99.99,,,-99.99,,2013-01-19 20:05:00,
2013-01-19 12:10:00,53.9,-99.9,30.15,SSE,166,0.0,0.0,-999,-99.99,,,-99.99,,2013-01-19 20:10:00,
2013-01-19 12:15:00,53.9,-99.9,30.15,East,83,0.0,0.0,-999,-99.99,,,-99.99,,2013-01-19 20:15:00,
2013-01-19 12:20:00,54.0,-99.9,30.15,East,100,0.0,6.4,-999,-99.99,,,-99.99,,2013-01-19 20:20:00,
2013-01-19 12:25:00,54.4,-99.9,30.15,ESE,104,11.1,17.7,-999,-99.99,,,-99.99,,2013-01-19 20:25:00,
2013-01-19 12:30:00,54.4,-99.9,30.14,East,95,0.0,0.0,-999,-99.99,,,-99.99,,2013-01-19 20:30:00,
2013-01-19 12:40:00,54.6,-99.9,30.14,ESE,105,0.0,12.2,-999,-99.99,,,-99.99,,2013-01-19 20:40:00,
2013-01-19 12:45:00,54.7,-99.9,30.14,East,97,0.0,20.8,-999,-99.99,,,-99.99,,2013-01-19 20:45:00,
2013-01-19 12:50:00,54.7,-99.9,30.14,ESE,108,15.8,18.3,-999,-99.99,,,-99.99,,2013-01-19 20:50:00,
2013-01-19 13:05:00,54.9,-99.9,30.14,East,79,0.0,0.0,-999,-99.99,,,-99.99,,2013-01-19 21:05:00,
2013-01-19 13:10:00,55.1,-99.9,30.13,ENE,67,0.0,0.0,-999,-99.99,,,-99.99,,2013-01-19 21:10:00,
2013-01-19 13:20:00,55.4,-99.9,30.13,East,101,0.0,0.0,-999,-99.99,,,-99.99,,2013-01-19 21:20:00,
2013-01-19 13:30:00,55.3,-99.9,30.13,ESE,105,0.0,0.0,-999,-99.99,,,-99.99,,2013-01-19 21:30:00,
2013-01-19 13:35:00,55.4,-99.9,30.12,ESE,107,0.0,16.9,-999,-99.99,,,-99.99,,2013-01-19 21:35:00,
2013-01-19 13:45:00,55.7,-99.9,30.12,ESE,107,11.1,12.9,-999,-99.99,,,-99.99,,2013-01-19 21:45:00,
2013-01-19 13:50:00,55.6,-99.9,30.12,SE,125,0.0,6.0,-999,-99.99,,,-99.99,,2013-01-19 21:50:00,
2013-01-19 14:00:00,55.9,-99.9,30.12,SE,125,0.0,0.0,-999,-99.99,,,-99.99,,2013-01-19 22:00:00,
2013-01-19 14:05:00,56.0,-99.9,30.12,SE,141,0.0,13.8,-999,-99.99,,,-99.99,,2013-01-19 22:05:00,
2013-01-19 14:10:00,56.0,-99.9,30.12,East,80,0.0,0.0,-999,-99.99,,,-99.99,,2013-01-19 22:10:00,
2013-01-19 14:20:00,56.1,-99.9,30.11,East,94,0.0,13.0,-999,-99.99,,,-99.99,,2013-01-19 22:20:00,
2013-01-19 14:30:00,56.2,-99.9,30.11,ESE,117,0.0,0.0,-999,-99.99,,,-99.99,,2013-01-19 22:30:00,
2013-01-19 14:35:00,56.5,-99.9,30.11,ESE,117,0.0,8.4,-999,-99.99,,,-99.99,,2013-01-19 22:35:00,
2013-01-19 14:45:00,56.8,-99.9,30.11,ENE,70,0.0,0.0,-999,-99.99,,,-99.99,,2013-01-19 22:45:00,
2013-01-19 14:50:00,56.6,-99.9,30.11,ENE,70,0.0,7.2,-999,-99.99,,,-99.99,,2013-01-19 22:50:00,
2013-01-19 14:55:00,56.7,-99.9,30.11,SSE,156,12.7,18.7,-999,-99.99,,,-99.99,,2013-01-19 22:55:00,
2013-01-19 15:00:00,56.7,-99.9,30.11,SE,127,13.4,15.6,-999,-99.99,,,-99.99,,2013-01-19 23:00:00,
2013-01-19 15:10:00,56.7,-99.9,30.11,East,97,0.0,0.0,-999,-99.99,,,-99.99,,2013-01-19 23:10:00,
2013-01-19 15:20:00,57.0,-99.9,30.11,East,97,0.0,15.0,-999,-99.99,,,-99.99,,2013-01-19 23:20:00,
2013-01-19 15:30:00,56.9,-99.9,30.11,East,87,7.2,15.6,-999,-99.99,,,-99.99,,2013-01-19 23:30:00,
2013-01-19 15:35:00,56.9,-99.9,30.11,ESE,115,10.8,14.0,-999,-99.99,,,-99.99,,2013-01-19 23:35:00,
2013-01-19 15:40:00,56.8,-99.9,30.11,ESE,108,0.0,13.0,-999,-99.99,,,-99.99,,2013-01-19 23:40:00,
2013-01-19 15:50:00,57.0,-99.9,30.11,ESE,115,0.0,0.0,-999,-99.99,,,-99.99,,2013-01-19 23:50:00,
2013-01-19 15:55:00,57.0,-99.9,30.11,ESE,115,0.0,0.0,-999,-99.99,,,-99.99,,2013-01-19 23:55:00,
2013-01-19 16:05:00,57.1,-99.9,30.11,East,97,0.0,12.1,-999,-99.99,,,-99.99,,2013-01-20 00:05:00,
2013-01-19 16:15:00,57.1,-99.9,30.11,ESE,118,0.0,0.0,-999,-99.99,,,-99.99,,2013-01-20 00:15:00,
2013-01-19 16:20:00,57.0,-99.9,30.11,ESE,118,0.0,0.0,-999,-99.99,,,-99.99,,2013-01-20 00:20:00,
2013-01-19 16:30:00,57.1,-99.9,30.11,ESE,118,0.0,0.0,-999,-99.99,,,-99.99,,2013-01-20 00:30:00,
2013-01-19 16:40:00,56.9,-99.9,30.11,ESE,118,0.0,0.0,-999,-99.99,,,-99.99,,2013-01-20 00:40:00,
2013-01-19 16:45:00,56.9,-99.9,30.11,ESE,118,0.0,0.0,-999,-99.99,,,-99.99,,2013-01-20 00:45:00,
2013-01-19 16:55:00,56.8,-99.9,30.11,ESE,118,0.0,0.0,-999,-99.99,,,-99.99,,2013-01-20 00:55:00,
2013-01-19 17:00:00,56.7,-99.9,30.11,ESE,118,0.0,0.0,-999,-99.99,,,-99.99,,2013-01-20 01:00:00,
2013-01-19 17:10:00,56.5,-99.9,30.11,ESE,118,0.0,0.0,-999,-99.99,,,-99.99,,2013-01-20 01:10:00,
2013-01-19 17:15:00,56.5,-99.9,30.11,ESE,118,0.0,0.0,-999,-99.99,,,-99.99,,2013-01-20 01:15:00,
2013-01-19 17:25:00,56.2,-99.9,30.11,ESE,118,0.0,0.0,-999,-99.99,,,-99.99,,2013-01-20 01:25:00,
2013-01-19 17:34:00,56.0,-99.9,30.11,ESE,118,0.0,0.0,-999,-99.99,,,-99.99,,2013-01-20 01:34:00,
2013-01-19 17:40:00,56.0,-99.9,30.11,ESE,118,0.0,0.0,-999,-99.99,,,-99.99,,2013-01-20 01:40:00,
2013-01-19 17:45:00,55.6,-99.9,30.11,ESE,118,0.0,0.0,-999,-99.99,,,-99.99,,2013-01-20 01:45:00,
2013-01-19 17:50:00,55.3,-99.9,30.11,ESE,118,0.0,0.0,-999,-99.99,,,-99.99,,2013-01-20 01:50:00,
2013-01-19 18:00:00,54.9,-99.9,30.11,ESE,118,0.0,0.0,-999,-99.99,,,-99.99,,2013-01-20 02:00:00,
2013-01-19 18:10:00,54.7,-99.9,30.11,ESE,118,0.0,0.0,-999,-99.99,,,-99.99,,2013-01-20 02:10:00,
2013-01-19 18:20:00,54.6,-99.9,30.11,ESE,118,0.0,0.0,-999,-99.99,,,-99.99,,2013-01-20 02:20:00,
2013-01-19 18:30:00,54.2,-99.9,30.11,ESE,118,0.0,0.0,-999,-99.99,,,-99.99,,2013-01-20 02:30:00,
2013-01-19 18:35:00,54.0,-99.9,30.11,ESE,118,0.0,0.0,-999,-99.99,,,-99.99,,2013-01-20 02:35:00,
2013-01-19 18:45:00,54.1,-99.9,30.11,ESE,118,0.0,0.0,-999,-99.99,,,-99.99,,2013-01-20 02:45:00,
2013-01-19 18:50:00,54.0,-99.9,30.11,ESE,118,0.0,0.0,-999,-99.99,,,-99.99,,2013-01-20 02:50:00,
2013-01-19 19:00:00,53.7,-99.9,30.11,ESE,118,0.0,0.0,-999,-99.99,,,-99.99,,2013-01-20 03:00:00,
2013-01-19 19:05:00,53.5,-99.9,30.11,ESE,118,0.0,0.0,-999,-99.99,,,-99.99,,2013-01-20 03:05:00,
2013-01-19 19:10:00,53.5,-99.9,30.11,ESE,118,0.0,0.0,-999,-99.99,,,-99.99,,2013-01-20 03:10:00,
2013-01-19 19:20:00,53.4,-99.9,30.12,ESE,118,0.0,0.0,-999,-99.99,,,-99.99,,2013-01-20 03:20:00,
2013-01-19 19:25:00,53.3,-99.9,30.12,ESE,118,0.0,0.0,-999,-99.99,,,-99.99,,2013-01-20 03:25:00,
2013-01-19 19:35:00,53.3,-99.9,30.12,ESE,118,0.0,0.0,-999,-99.99,,,-99.99,,2013-01-20 03:35:00,
2013-01-19 19:40:00,53.1,-99.9,30.12,ESE,118,0.0,0.0,-999,-99.99,,,-99.99,,2013-01-20 03:40:00,
2013-01-19 19:45:00,53.0,-99.9,30.12,ESE,118,0.0,0.0,-999,-99.99,,,-99.99,,2013-01-20 03:45:00,
2013-01-19 19:55:00,52.9,-99.9,30.12,ESE,118,0.0,0.0,-999,-99.99,,,-99.99,,2013-01-20 03:55:00,
2013-01-19 20:05:00,52.7,-99.9,30.13,ESE,118,0.0,0.0,-999,-99.99,,,-99.99,,2013-01-20 04:05:00,
2013-01-19 20:15:00,52.6,-99.9,30.13,ESE,118,0.0,0.0,-999,-99.99,,,-99.99,,2013-01-20 04:15:00,
2013-01-19 20:25:00,52.3,-99.9,30.13,ESE,118,0.0,0.0,-999,-99.99,,,-99.99,,2013-01-20 04:25:00,
2013-01-19 20:30:00,52.2,-99.9,30.13,ESE,118,0.0,0.0,-999,-99.99,,,-99.99,,2013-01-20 04:30:00,
2013-01-19 20:35:00,52.1,-99.9,30.13,ESE,118,0.0,0.0,-999,-99.99,,,-99.99,,2013-01-20 04:35:00,
2013-01-19 20:45:00,52.1,-99.9,30.14,ESE,118,0.0,0.0,-999,-99.99,,,-99.99,,2013-01-20 04:45:00,
2013-01-19 20:55:00,52.0,-99.9,30.14,ESE,118,0.0,0.0,-999,-99.99,,,-99.99,,2013-01-20 04:55:00,
2013-01-19 21:00:00,51.9,-99.9,30.14,ESE,118,0.0,0.0,-999,-99.99,,,-99.99,,2013-01-20 05:00:00,
2013-01-19 21:05:00,52.0,-99.9,30.14,ESE,118,0.0,0.0,-999,-99.99,,,-99.99,,2013-01-20 05:05:00,
2013-01-19 21:10:00,51.9,-99.9,30.14,ESE,118,0.0,0.0,-999,-99.99,,,-99.99,,2013-01-20 05:10:00,
2013-01-19 21:15:00,51.9,-99.9,30.14,ESE,118,0.0,0.0,-999,-99.99,,,-99.99,,2013-01-20 05:15:00,
2013-01-19 21:20:00,51.8,-99.9,30.14,ESE,118,0.0,0.0,-999,-99.99,,,-99.99,,2013-01-20 05:20:00,
2013-01-19 21:25:00,51.8,-99.9,30.14,ESE,118,0.0,0.0,-999,-99.99,,,-99.99,,2013-01-20 05:25:00,
2013-01-19 21:30:00,51.7,-99.9,30.14,ESE,118,0.0,0.0,-999,-99.99,,,-99.99,,2013-01-20 05:30:00,
2013-01-19 21:35:00,51.7,-99.9,30.14,ESE,118,0.0,0.0,-999,-99.99,,,-99.99,,2013-01-20 05:35:00,
2013-01-19 21:40:00,51.7,-99.9,30.14,ESE,118,0.0,0.0,-999,-99.99,,,-99.99,,2013-01-20 05:40:00,
2013-01-19 21:45:00,51.7,-99.9,30.15,ESE,118,0.0,0.0,-999,-99.99,,,-99.99,,2013-01-20 05:45:00,
2013-01-19 21:50:00,51.8,-99.9,30.15,ESE,118,0.0,0.0,-999,-99.99,,,-99.99,,2013-01-20 05:50:00,
2013-01-19 22:00:00,51.6,-99.9,30.15,ESE,118,0.0,0.0,-999,-99.99,,,-99.99,,2013-01-20 06:00:00,
2013-01-19 22:10:00,51.4,-99.9,30.15,ESE,118,0.0,0.0,-999,-99.99,,,-99.99,,2013-01-20 06:10:00,
2013-01-19 22:15:00,51.4,-99.9,30.15,ESE,118,0.0,0.0,-999,-99.99,,,-99.99,,2013-01-20 06:15:00,
2013-01-19 22:20:00,51.6,-99.9,30.15,ESE,118,0.0,0.0,-999,-99.99,,,-99.99,,2013-01-20 06:20:00,
2013-01-19 22:30:00,51.4,-99.9,30.16,ESE,118,0.0,0.0,-999,-99.99,,,-99.99,,2013-01-20 06:30:00,
2013-01-19 22:35:00,51.3,-99.9,30.16,ESE,118,0.0,0.0,-999,-99.99,,,-99.99,,2013-01-20 06:35:00,
2013-01-19 22:40:00,51.3,-99.9,30.16,ESE,118,0.0,0.0,-999,-99.99,,,-99.99,,2013-01-20 06:40:00,
2013-01-19 22:45:00,51.3,-99.9,30.16,ESE,118,0.0,0.0,-999,-99.99,,,-99.99,,2013-01-20 06:45:00,
2013-01-19 22:50:00,51.3,-99.9,30.16,ESE,118,0.0,0.0,-999,-99.99,,,-99.99,,2013-01-20 06:50:00,
2013-01-19 22:55:00,51.3,-99.9,30.16,ESE,118,0.0,0.0,-999,-99.99,,,-99.99,,2013-01-20 06:55:00,
2013-01-19 23:00:00,51.1,-99.9,30.16,ESE,118,0.0,0.0,-999,-99.99,,,-99.99,,2013-01-20 07:00:00,
2013-01-19 23:05:00,51.1,-99.9,30.16,ESE,118,0.0,0.0,-999,-99.99,,,-99.99,,2013-01-20 07:05:00,
2013-01-19 23:10:00,51.0,-99.9,30.16,ESE,118,0.0,0.0,-999,-99.99,,,-99.99,,2013-01-20 07:10:00,
2013-01-19 23:15:00,51.1,-99.9,30.16,ESE,118,0.0,0.0,-999,-99.99,,,-99.99,,2013-01-20 07:15:00,
2013-01-19 23:20:00,51.0,-99.9,30.16,ESE,118,0.0,0.0,-999,-99.99,,,-99.99,,2013-01-20 07:20:00,
2013-01-19 23:25:00,51.0,-99.9,30.16,ESE,118,0.0,0.0,-999,-99.99,,,-99.99,,2013-01-20 07:25:00,
2013-01-19 23:30:00,50.9,-99.9,30.16,ESE,118,0.0,0.0,-999,-99.99,,,-99.99,,2013-01-20 07:30:00,
2013-01-19 23:40:00,50.9,-99.9,30.16,ESE,118,0.0,0.0,-999,-99.99,,,-99.99,,2013-01-20 07:40:00,
2013-01-19 23:45:00,50.9,-99.9,30.16,ESE,118,0.0,0.0,-999,-99.99,,,-99.99,,2013-01-20 07:45:00,
2013-01-19 23:50:00,50.6,-99.9,30.16,ESE,118,0.0,0.0,-999,-99.99,,,-99.99,,2013-01-20 07:50:00,